Location: Fredericksburg
(30.2750°N, 98.8720°W)
Time: 08:08:36
(UTC-05:00)

ISS - All Passes

Search period start: 24 May 2015 00:00
Search period end: 03 June 2015 00:00
Orbit: 399 x 404 km, 51.6° (Epoch: 24 May)

Date Brightness Start Highest point End Pass type
(mag) Time Alt. Az. Time Alt. Az. Time Alt. Az.
24 May - 00:45:47 10° SW 00:49:00 80° SE 00:52:15 10° NE night (unlit)
24 May - 08:54:00 10° NW 08:57:14 68° NE 09:00:29 10° SE daylight
24 May - 23:52:59 10° SSW 23:55:52 30° SE 23:58:47 10° ENE night (unlit)
25 May - 01:30:04 10° W 01:32:21 17° NW 01:34:35 10° N night (unlit)
25 May - 08:01:04 10° NNW 08:03:58 29° NE 08:06:54 10° ESE daylight
25 May - 09:38:06 10° W 09:40:14 16° SW 09:42:16 10° SSW daylight
25 May - 23:01:09 10° SSE 23:02:46 13° SE 23:04:30 10° E night (unlit)
26 May - 00:35:59 10° WSW 00:38:58 33° NW 00:41:58 10° NNE night (unlit)
26 May - 07:08:32 10° N 07:10:34 15° NE 07:12:39 10° ENE daylight
26 May - 08:44:04 10° WNW 08:47:06 36° SW 08:50:08 10° SSE daylight
26 May - 23:42:28 10° SW 23:45:41 82° NW 23:48:56 10° NE night (unlit)
27 May - 07:50:39 10° NW 07:53:55 86° NE 07:57:10 10° SE daylight
27 May - 22:49:28 10° SSW 22:52:29 38° SE 22:55:31 10° ENE night (unlit)
28 May - 00:27:03 10° WNW 00:29:02 15° NW 00:30:58 10° N night (unlit)
28 May - 06:57:35 10° NNW 07:00:37 35° NE 07:03:39 10° ESE daylight
28 May - 08:35:09 10° W 08:36:48 13° SW 08:38:21 10° SSW daylight
28 May - 21:57:14 10° SSE 21:59:19 16° SE 22:01:29 10° E night (unlit)
28 May - 23:32:43 10° WSW 23:35:35 28° NW 23:38:25 10° NNE night (unlit)
29 May - 06:04:53 10° N 06:07:10 18° NE 06:09:31 10° E visible
29 May - 07:40:44 10° WNW 07:43:38 29° SW 07:46:30 10° SSE daylight
29 May - 22:39:00 10° SW 22:42:12 65° NW 22:45:25 10° NE night (unlit)
30 May - 06:47:09 10° NW 06:50:24 76° SW 06:53:38 10° SE daylight
30 May - 21:45:49 10° SSW 21:48:55 47° SE 21:52:03 10° NE visible
30 May - 23:23:55 10° WNW 23:25:34 13° NNW 23:27:06 10° N visible
31 May - 05:53:57 10° NNW 05:57:04 42° NE 06:00:11 10° ESE visible
31 May - 07:32:21 10° WSW 07:33:12 11° SW 07:33:54 10° SW daylight
31 May - 20:53:17 10° S 20:55:41 20° SE 20:58:09 10° ENE visible
31 May - 22:29:18 10° W 22:32:00 24° NW 22:34:41 10° NNE visible
01 Jun - 05:01:05 10° NNW 05:03:36 21° NE 05:06:09 10° E visible
01 Jun - 06:37:15 10° WNW 06:39:58 24° SW 06:42:39 10° S daylight
01 Jun - 21:35:23 10° WSW 21:38:32 52° NW 21:41:43 10° NE visible
02 Jun - 04:08:55 10° NNE 04:10:00 11° NNE 04:11:10 10° NE visible
02 Jun - 05:43:29 10° NW 05:46:42 60° SW 05:49:54 10° SSE visible
02 Jun - 20:42:00 10° SSW 20:45:11 60° SE 20:48:22 10° NE daylight
02 Jun - 22:20:44 10° NW 22:21:53 11° NNW 22:22:57 10° NNW visible
